Weather Roundup
Issued by NWS Chicago, IL

Home | Current Version | Previous Version | Text Only | Print | Product List | Glossary On
Versions: 1 2 3 4 5 6 7 8 9 10 11 12 13 14 15 16 17 18 19 20 21 22 23 24 25 26 27 28 29 30 31 32 33 34 35 36 37 38 39 40 41 42 43 44 45 46 47 48 49 50
000
NZUS59 KLOT 251008
HRRLOT

CHICAGO AREA WEATHER ROUNDUP
NATIONAL WEATHER SERVICE CHICAGO/ROMEOVILLE IL
400 AM CST SAT NOV 25 2017

NOTE: "FAIR" INDICATES FEW OR NO CLOUDS BELOW 12,000 FEET WITH NO
SIGNIFICANT WEATHER AND/OR OBSTRUCTIONS TO VISIBILITY.

* THESE STATIONS ARE NOT UNDER NWS QUALITY CONTROL. THEY ALSO MAY NOT
  REPORT WEATHER SUCH AS PRECIPITATION OR FOG.

ILZ005-006-012>014-019>023-251100-
NORTHEAST ILLINOIS

CITY           SKY/WX    TMP DP  RH WIND       PRES   REMARKS
OHARE          CLEAR     46  37  71 W9        29.75R
MIDWAY         CLEAR     47  38  71 W7        29.76R
AURORA         CLEAR     41  38  89 W13       29.79R
LANSING*       CLEAR     47  40  78 NW9G16    29.77R
JOLIET*        CLEAR     44  41  86 W6        29.80R
WAUKEGAN       PTCLDY    43  36  76 W7        29.74R
DUPAGE AIRPORT CLEAR     42  38  85 W8        29.77R
WHEELING       CLEAR     46  38  73 NW10      29.76R
KANKAKEE*      CLEAR     44  40  86 W9        29.81R
MORRIS*        CLEAR     41  38  88 W10       29.79R
LEWIS AIRPORT* CLEAR     42  37  83 W7        29.79R
NORTHERLY ISL    N/A     48  37  65 W10         N/A
$$

WIZ051-052-058>065-066-070>072-251100-
SOUTHEAST WISCONSIN

CITY           SKY/WX    TMP DP  RH WIND       PRES   REMARKS
MILWAUKEE      MOCLDY    46  37  71 W9        29.72R
KENOSHA*       PTCLDY    42  35  76 W10       29.74R
RACINE*        MOCLDY    44  36  73 W8        29.75R
BURLINGTON     CLEAR     44  40  85 W10       29.75R
WAUKESHA       CLEAR     37  34  87 W13G20    29.74R
WEST BEND      CLOUDY    41  36  81 W12       29.71R
$$

INZ001>003-010>013-019-020-251100-
NORTHWEST INDIANA

CITY           SKY/WX    TMP DP  RH WIND       PRES   REMARKS
GARY*          NOT AVBL
MICHIGAN CITY* NOT AVBL
RENSSELAER*    NOT AVBL
VALPARAISO     PTCLDY    50  41  71 NW15G23   29.75R
$$

LMZ740>746-251100-
SOUTHERN LAKE MICHIGAN

STATION/POSITION TIME  SKY/WX   TEMP WIND        PRES    VSBY
                                AIR  DIR/SP/G
                 (UTC)          (F)  (DEG/KT/KT) (MB)    (MI)
HARRISON CRIB    0940            49  310/ 14/ 17   N/A
BURNHAM HARBOR   1000            48  260/  7/ 15   N/A
CALUMET HARBOR   0942            48  270/  8/ 16 1007.2R
BURNS HARBOR     0940            48  320/ 16/ 24 1007.8R
MICHIGAN CITY    0940            48  300/ 19/ 22   N/A
$$

ABBREVIATIONS USED IN REMARKS
   TC - TEMPERATURE IN CELSIUS
  WCI - WIND CHILL INDEX
   HX - HEAT INDEX
  VSB - VISIBILITY
$$




USA.gov is the U.S. government's official web portal to all federal, state and local government web resources and services.